COSMOS 252

Satellite information

Favourite Embed

Satellite Type and Status

PAYLOADIN ORBIT

Key statistics

Satellite COSMOS 252 at a glance.

Uptime

20642

Days in orbit

Revolutions

≈ 12.9

Per day

Orbit

MEO

Medium Earth Orbit

Inclination

62.3

Latest

Satellite identification and parameters

Extended collection of information and parameters for COSMOS 252.

Object identification

Identified? True

Debris? False

Object name: COSMOS 252

International designator: 1968-097A

Object number (NORAD): 3530

Object ID (CCSDS): 3530

Country: COMMONWEALTH OF INDEPENDENT STATES (CIS)

Current information (Y/N): Y

RCS size: LARGE

Orbital parameters

Period: 111.79 minutes

Inclination: 62.3288 deg

SMA: 7687.081 km

Apoapsis: 2063.935 km

Periapsis: 553.957 km

RAAN: 67.7905 deg

Eccentricy: 0.0982153

Argument of periapsis: 332.2005 deg

Mean anomaly: 22.9614 deg

Mean motion: 12.88132647 rev/day

Mean motion (dot): 0.00000167 rev/day2

B* drag term: 0.00011303 1/REarth

Two-line elements (TLE)

Creation date: May 8, 2025, 3:01 a.m.

Reference frame: TEME

Reference center: EARTH

Epoch: May 7, 2025, 10:18 p.m. UTC

TLE line 0: 0 COSMOS 252

TLE line 1: 1 03530U 68097A 25127.92951119 .00000167 00000-0 11303-3 0 9990

TLE line 2: 2 03530 62.3288 67.7905 0982153 332.2005 22.9614 12.88132647653740

Live tracking on map

Real-time ground track for satellite COSMOS 252.

In-orbit conjunctions

A list of the most updated potential collisions computed for object COSMOS 252.

Target Orbit TCA Probability of collision Miss distance Type
CZ-6A DEB LEO 2024-10-08 12:28:40 0.004953699 216.0 (m) DEBRIS

Associated space launch

The I2P satellites were the first soviet coorbital ASAT system.

COSMOS 252 was lifted into orbit during the mission ‘Tsiklon-2A | I2P 2’, on board a Tsiklon-2A space rocket.

The launch took place on Nov. 1, 1968, 12:27 a.m. from 90/20.

For more information about the launch, click the button.

Launch to space Tsiklon-2A | I2P 2
Tsiklon-2A | I2P 2

Agency: N/A

Status: Launch Successful

Launch date: Nov. 1, 1968, 12:27 a.m. UTC

Rocket: Tsiklon-2A

Launch pad: 90/20

Location: Baikonur Cosmodrome, Republic of Kazakhstan

...

Latest news about this satellite

There are no fresh news available about this satellite. Check back as we update our databases every day.


Newsletter sign-up

Weekly statistics, charts and insights to help you stay on top of the space industry.